Voltar ao catálogo

STARLINK-11546

AtivoComunicaçõesVLEO
NORAD 62835·PAYLOAD·🇺🇸 United States

Lançado Jan 27, 2025 de Cape Canaveral Space Force Station

Loading…

Próximas Passagens (próximas 24 horas)

TLE

AtualizadoSource: CelesTrak SupGP

Época: Sep 15, 2026, 03:04 UTC

1 62835C 25019G   26258.12826389 -.00065979  00000+0 -51240-3 0  2583
2 62835  43.0009 244.6362 0001449 258.1811 281.7143 15.70873974    11

Acompanhe STARLINK-11546 em tempo real com AllMySat

Download on the App Store